• Join FlightAware (Why Join?)
  • Login
  • US Flag 
07:48AM EST


 

Airport Tracker/Info


-or-


 

Live Flight TrackerFlight Track Log ✈ DAL3895 ✈ 29-Apr-2013 ✈ KPHL - KCVG

Flight Track Log - Related Links

Times and Time Zones

All times are in EDT time to prevent confusion due to time zone crossing. See the DAL3895 flight status page for this flight to view local times or setup timezone preferences in your user account.

Time Position Orientation Groundspeed Altitude Reporting Facility
EDT Latitude Longitude Course Direction KTS MPH feet Rate Location/Type
11:44AM 39.8833 -75.2167 270° West 145 167 700  Level Philadelphia TRACON
11:45AM 39.9000 -75.1500 72° East 219 252 3,300 2,273 Climbing Philadelphia TRACON
11:46AM 39.9500 -75.1000 37° Northeast 292 336 5,700 2,650 Climbing Philadelphia TRACON
11:47AM 39.9149 -75.6577 285° West  Level FlightAware Approximate
11:47AM 40.0333 -75.1167 351° North 294 338 8,600  Level Philadelphia TRACON
11:48AM 39.9000 -75.8031 270° West  Level FlightAware Approximate
11:49AM 39.9000 -75.9512 270° West  Level FlightAware Approximate
11:49AM 40.0142 -75.2997 262° West 306 352 10,000  Level New York Center
11:50AM 39.9000 -76.0992 270° West  Level FlightAware Approximate
11:50AM 39.9883 -75.4281 255° West 333 383 10,000  Level New York Center
11:51AM 39.9839 -75.5389 267° West 342 394 10,000 1,026 Level New York Center
11:52AM 39.9761 -75.6739 266° West 342 394 12,000 1,966 Climbing New York Center
11:53AM 39.9717 -75.7819 267° West 342 394 13,900 1,918 Climbing New York Center
11:54AM 39.9664 -75.9061 267° West 348 400 15,900 1,934 Climbing New York Center
11:55AM 39.9619 -76.0494 268° West 348 400 17,800 1,488 Climbing New York Center
11:56AM 39.9542 -76.1761 265° West 348 400 18,900 1,160 Climbing New York Center
11:57AM 39.9486 -76.2975 267° West 361 415 20,100 1,271 Climbing New York Center
11:58AM 39.9097 -76.4164 247° West 361 415 21,400 1,160 Climbing New York Center
11:59AM 39.8681 -76.5403 246° West 366 421 22,400 950 Climbing New York Center
12:00PM 39.8225 -76.6633 244° Southwest 372 428 23,300 873 Climbing New York Center
12:01PM 39.7850 -76.7606 243° Southwest 374 430 24,000 841 Climbing Washington Center
12:02PM 39.7400 -76.8842 245° Southwest 374 430 24,800 763 Climbing Washington Center
12:03PM 39.6950 -77.0100 245° Southwest 380 437 25,500 738 Climbing Washington Center
12:04PM 39.6497 -77.1358 245° Southwest 385 443 26,300 738 Climbing Washington Center
12:05PM 39.6042 -77.2614 245° Southwest 385 443 27,000 706 Climbing Washington Center
12:06PM 39.5567 -77.3869 244° Southwest 380 437 27,700 661 Climbing Washington Center
12:07PM 39.5131 -77.5122 246° West 380 437 28,300 550 Climbing Washington Center
12:08PM 39.4672 -77.6347 244° Southwest 380 437 28,800 496 Climbing Washington Center
12:09PM 39.4192 -77.7594 244° Southwest 380 437 29,300 504 Climbing Washington Center
12:10PM 39.3731 -77.8844 245° Southwest 380 437 29,800 353 Climbing Washington Center
12:11PM 39.3228 -78.0089 242° Southwest 385 443 30,000 98 Climbing Washington Center
12:12PM 39.2722 -78.1358 243° Southwest 390 449 30,000  Level Washington Center
12:13PM 39.2214 -78.2628 243° Southwest 395 455 30,000  Level Washington Center
12:14PM 39.1706 -78.3919 243° Southwest 402 463 30,000  Level Washington Center
12:15PM 39.1175 -78.5183 242° Southwest 402 463 30,000  Level Washington Center
12:16PM 39.0642 -78.6525 243° Southwest 407 468 30,000  Level Washington Center
12:17PM 39.0128 -78.7814 243° Southwest 407 468 30,000  Level Washington Center
12:18PM 38.9614 -78.9128 243° Southwest 407 468 30,000  Level Washington Center
12:19PM 38.9222 -79.0469 249° West 407 468 30,000  Level Washington Center
12:20PM 38.9181 -79.1908 268° West 396 456 30,000  Level Washington Center
12:21PM 38.9092 -79.3400 266° West 408 470 30,000  Level Washington Center
12:22PM 38.9044 -79.4864 268° West 413 475 30,000  Level Washington Center
12:23PM 38.8953 -79.6406 266° West 425 489 30,000  Level Washington Center
12:24PM 38.8881 -79.7869 266° West 425 489 30,000  Level Washington Center
12:26PM 38.8736 -80.0358 266° West 423 487 30,000  Level Indianapolis Center
12:27PM 38.8661 -80.1881 266° West 425 489 30,000  Level Indianapolis Center
12:28PM 38.8578 -80.3408 266° West 428 493 30,000  Level Indianapolis Center
12:29PM 38.8486 -80.5236 266° West 429 494 30,000  Level Indianapolis Center
12:30PM 38.8400 -80.6769 266° West 432 497 30,000 -145 Level Indianapolis Center
12:31PM 38.8253 -80.8300 263° West 434 499 29,700 -435 Descending Indianapolis Center
12:32PM 38.7986 -80.9858 258° West 446 513 29,100 -339 Descending Indianapolis Center
12:33PM 38.7731 -81.1419 258° West 448 516 29,000 -48 Descending Indianapolis Center
12:34PM 38.7478 -81.2964 258° West 443 510 29,000  Level Indianapolis Center
12:35PM 38.7192 -81.4694 258° West 436 502 29,000  Level Indianapolis Center
12:36PM 38.6936 -81.6231 258° West 439 505 29,000 -244 Level Indianapolis Center
12:37PM 38.6689 -81.7678 258° West 436 502 28,500 -878 Descending Indianapolis Center
12:38PM 38.6431 -81.9169 258° West 431 496 27,200 -1,258 Descending Indianapolis Center
12:39PM 38.6181 -82.0633 258° West 423 487 25,900 -1,403 Descending Indianapolis Center
12:40PM 38.5875 -82.2369 257° West 419 482 24,300 -1,403 Descending Indianapolis Center
12:41PM 38.5633 -82.3806 258° West 414 476 23,000 -1,113 Descending Indianapolis Center
12:42PM 38.5392 -82.5239 258° West 413 475 22,000 -484 Descending Indianapolis Center
12:43PM 38.5458 -82.6656 273° West 402 463 22,000 -48 Level Indianapolis Center
12:44PM 38.5553 -82.8069 275° West 402 463 21,900 -871 Descending Indianapolis Center
12:45PM 38.5647 -82.9728 274° West 400 460 20,200 -1,500 Descending Indianapolis Center
12:47PM 38.5725 -83.1058 274° West 381 438 18,800 -1,306 Descending Indianapolis Center
12:48PM 38.5797 -83.2328 274° West 364 419 17,500 -1,306 Descending Indianapolis Center
12:49PM 38.5861 -83.3539 274° West 349 402 16,100 -1,355 Descending Indianapolis Center
12:50PM 38.5925 -83.4772 274° West 348 400 14,700 -1,452 Descending Indianapolis Center
12:51PM 38.5994 -83.6200 274° West 346 398 13,100 -1,463 Descending Indianapolis Center
12:52PM 38.6064 -83.7408 274° West 343 395 11,700 -1,366 Descending Indianapolis Center
12:53PM 38.6128 -83.8575 274° West 331 381 10,300 -823 Descending Indianapolis Center
12:54PM 38.6375 -83.9683 286° West 331 381 10,000 -145 Descending Indianapolis Center
12:55PM 38.6922 -84.0750 303° West 339 390 10,000  Level Indianapolis Center
12:56PM 38.7461 -84.1781 304° West 344 396 10,000  Level Indianapolis Center
12:57PM 38.8008 -84.2844 303° West 352 405 10,000 -97 Level Indianapolis Center
12:58PM 38.8511 -84.3814 304° West 322 371 9,800 -484 Descending Indianapolis Center
12:59PM 38.8931 -84.4628 304° West 275 316 9,000 -571 Descending Indianapolis Center
12:59PM 38.9167 -84.5000 309° West 269 310 9,000  Level Cincinnati TRACON
01:00PM 38.9833 -84.5333 339° North 285 328 9,000 -524 Level Cincinnati TRACON
01:01PM 39.0667 -84.5333 360° North 278 320 7,900 -1,250 Descending Cincinnati TRACON
01:02PM 39.1500 -84.5333 360° North 267 307 6,500 -1,394 Descending Cincinnati TRACON
01:03PM 39.1869 -84.5411 351° North 269 310 5,600 -1,366 Descending Indianapolis Center
01:04PM 39.2600 -84.5417 360° North 262 302 4,200 -774 Descending Indianapolis Center
01:05PM 39.2931 -84.6108 302° West 250 288 4,000 -290 Descending Indianapolis Center
01:06PM 39.2536 -84.6678 228° Southwest 231 266 3,600 -387 Descending Indianapolis Center